CAPE
2 1 1 1 1 1 0 1 1 1 0 0 2 0 0 0 0 0 0 0 0 28 0 0 0 0 32 0 0 92 387 274 143 227 349 163 405 155 171 346 201 167 271 488 618
2 1 0 1 1 2 1 1 0 1 1 1 1 1 0 0 0 0 0 0 0 44 0 0 0 0 0 0 0 205 455 357 383 379 119 143 470 280 169 156 292 344 407 637 731
2 2 2 2 1 1 1 1 1 1 0 1 1 0 0 0 0 0 0 0 238 91 0 0 0 0 0 0 75 492 465 544 554 529 194 188 373 347 275 334 164 188 614 701 710
0 1 0 1 0 0 1 1 1 1 0 1 2 0 0 0 0 0 0 231 738 4 0 0 0 0 0 6 370 440 700 712 548 372 240 315 344 204 285 281 65 113 516 627 635
2 1 1 1 1 1 0 1 1 1 0 0 1 0 0 0 0 0 126 210 0 0 0 0 0 0 0 56 406 441 551 341 317 271 231 448 358 276 391 200 70 269 412 472 478
1 1 1 1 1 1 0 1 1 1 0 1 0 0 0 0 0 0 0 0 0 0 0 0 0 0 0 94 125 547 336 364 345 363 320 280 375 303 372 341 134 236 274 375 381
1 1 1 1 1 2 1 1 1 1 1 0 0 0 0 0 0 0 0 0 0 0 0 0 0 0 0 65 627 460 216 495 585 358 511 320 317 283 428 446 131 211 250 313 382
1 1 1 1 1 1 1 0 2 1 0 0 0 0 0 0 0 0 0 0 0 0 0 0 0 0 55 296 158 32 313 217 550 505 591 511 433 317 396 413 81 182 259 264 390
1 1 1 1 1 1 1 0 0 0 0 0 0 0 0 0 0 0 0 0 0 0 0 0 0 0 146 0 7 90 42 58 315 661 639 623 477 379 551 550 206 249 297 330 419
3 1 3 5 1 1 0 0 1 0 0 0 0 0 0 0 0 0 0 0 0 0 0 0 0 0 0 1 21 4 1 14 269 758 718 668 631 484 608 634 460 289 301 389 420
2 2 4 2 1 1 0 0 0 0 0 0 0 0 0 0 0 0 0 0 0 0 0 0 0 0 0 0 0 0 0 17 170 516 712 908 796 573 577 631 623 590 485 391 428
2 1 2 2 1 0 0 0 0 0 0 0 0 0 0 0 0 0 0 0 0 0 0 0 0 0 0 0 0 0 0 77 519 680 988 1108 1056 894 685 671 651 610 672 616 417
3 3 2 2 1 0 0 0 0 0 0 0 0 0 0 0 0 0 0 0 0 0 0 0 0 0 0 0 0 9 8 49 337 633 1057 983 936 797 876 797 646 609 546 529 610
2 3 1 0 0 0 0 0 0 0 0 0 0 0 0 0 0 0 0 0 0 0 0 0 0 0 0 0 0 25 0 102 257 483 488 657 425 455 615 701 908 749 567 531 442
1 3 2 1 0 0 0 0 0 0 0 0 0 0 0 0 0 0 0 0 0 0 0 0 0 0 0 0 0 24 43 164 155 248 212 654 617 369 461 337 560 748 784 637 509
1 3 2 0 0 0 0 0 0 0 0 0 0 0 0 0 0 0 0 0 0 0 0 0 0 0 0 0 0 86 173 176 276 266 226 87 90 59 61 255 466 414 632 773 452
0 0 0 0 0 0 0 0 0 0 0 0 0 0 0 0 0 0 0 0 0 0 0 0 0 0 0 0 4 48 58 52 110 257 87 103 27 109 91 265 497 475 664 823 696
0 0 0 0 0 0 0 0 0 0 0 0 0 0 0 0 0 0 0 0 0 0 0 0 0 0 0 0 9 65 21 64 19 45 38 176 90 102 197 253 510 406 575 785 678
0 0 0 0 0 0 0 0 0 0 0 0 0 0 0 0 0 0 0 0 0 0 0 0 0 0 0 0 0 19 30 21 6 1 2 48 68 481 656 489 486 598 606 825 759
0 0 0 0 0 0 0 0 0 0 0 0 0 0 0 0 0 0 0 0 0 0 0 0 0 0 0 0 0 0 2 3 1 0 52 100 89 154 757 636 498 604 732 870 914
0 0 0 0 0 0 0 0 0 0 0 0 0 0 0 0 0 0 0 0 0 0 0 0 0 0 0 0 1 0 0 0 2 3 76 122 139 20 510 842 598 538 585 900 1019
0 0 0 0 0 0 0 0 0 0 0 0 0 0 0 0 0 0 0 2 0 0 0 0 0 0 0 3 0 0 0 1 0 35 3 26 83 22 447 818 876 690 714 698 997
0 0 0 0 0 0 0 0 0 0 0 0 0 0 0 0 0 0 1 0 0 0 0 0 0 7 15 0 0 0 0 0 3 16 21 35 93 334 510 764 991 1018 1188 1285 1082
0 0 0 0 0 0 0 0 0 0 0 0 0 0 0 0 0 0 0 0 0 0 0 0 0 7 80 67 30 41 22 0 11 62 111 109 54 192 181 445 752 1064 1294 1497 1744
0 0 0 0 0 0 0 0 0 0 0 0 0 0 0 0 0 0 0 0 0 0 0 0 13 40 57 44 39 1 19 71 1 37 118 189 190 178 215 209 531 917 1231 1346 1693
0 0 0 0 0 0 0 0 0 0 0 0 0 0 0 0 5 7 0 0 0 0 0 5 18 67 94 49 78 58 39 12 87 88 148 153 211 187 208 679 856 1439 1406 1387 1559
0 0 0 0 0 0 0 0 0 0 0 0 0 0 0 0 0 0 0 0 0 1 4 2 24 78 84 127 101 112 92 112 92 145 171 206 301 376 270 739 646 804 1265 1493 1480
CIN
0 0 0 0 0 0 0 0 0 0 0 0 0 0 0 0 0 0 0 0 0 -430 0 0 0 0 -53 0 0 -44 0 0 0 -1 0 -18 0 -25 -69 -3 -24 -35 -2 0 -3
0 0 0 0 0 0 0 0 0 0 0 0 0 0 0 0 0 0 0 0 0 -624 0 0 0 0 0 0 0 -4 0 -1 -3 0 -2 -4 0 -13 -23 -32 -11 -10 -9 -4 0
0 0 0 0 0 0 0 0 0 0 0 0 0 0 0 0 0 0 0 0 -482 -536 0 0 0 0 0 0 -54 -1 0 -3 0 -7 -9 0 -3 -8 -3 0 -1 -1 -9 -6 0
0 0 0 0 0 0 0 0 0 0 0 0 0 0 0 0 0 0 0 -549 -360 -15 0 0 0 0 0 -4 -8 -1 -8 -11 -8 -27 -17 0 -15 -34 -1 -1 -15 -20 -19 -1 0
0 0 0 0 0 0 0 0 0 0 0 0 0 0 0 0 0 0 -647 -350 0 0 0 0 0 0 0 -4 -4 -1 -1 -13 -40 -40 -20 -6 -6 -13 0 -7 -27 -19 -7 0 0
0 0 0 0 0 0 0 0 0 0 0 0 0 0 0 0 0 0 0 0 0 0 0 0 0 0 0 -38 -23 -10 -10 -21 -36 -16 -9 -4 0 -7 -4 -3 -12 -14 -8 0 0
0 0 0 0 0 0 0 0 0 0 0 0 0 0 0 0 0 0 0 0 0 0 0 0 0 0 0 -8 -22 -21 -6 -8 -4 -19 -2 -14 -2 -5 -6 0 -5 0 -7 -2 0
0 0 0 0 0 0 0 0 0 0 0 0 0 0 0 0 0 0 0 0 0 0 0 0 0 0 -6 -16 -22 -15 -16 0 -6 -18 -13 -12 0 -38 -61 -7 -1 0 -12 -5 0
0 0 0 0 0 0 0 0 0 0 0 0 0 0 0 0 0 0 0 0 0 0 0 0 0 0 -12 0 0 -8 0 -3 0 -16 -1 -6 -1 -34 -36 -1 0 -1 -2 -1 0
0 0 0 0 0 0 -1 0 0 0 0 0 0 0 0 0 0 0 0 0 0 0 0 0 0 0 0 0 0 0 0 -1 -1 0 -14 0 -1 -9 -16 -10 -5 0 0 0 0
0 0 -1 0 0 -1 0 0 0 0 0 0 0 0 0 0 0 0 0 0 0 0 0 0 0 0 0 0 0 0 0 0 -7 -20 -21 -7 -7 -1 -15 -10 -5 -4 0 0 0
0 0 0 -1 -1 -1 0 0 0 0 0 0 0 0 0 0 0 0 0 0 0 0 0 0 0 0 0 0 0 0 -5 -1 -8 -33 -29 -4 -13 -14 -25 -36 -16 -13 -6 -1 0
0 -1 -1 -2 -1 0 0 0 0 0 0 0 0 0 0 0 0 0 0 0 0 0 0 0 0 0 0 0 0 -1 -1 -1 -2 -16 -34 -31 -8 -14 -19 -34 -37 -27 -8 -11 -5
0 0 -2 -3 0 0 0 0 0 0 0 0 0 0 0 0 0 0 0 0 0 0 0 0 0 0 0 0 0 -1 0 -3 -9 -5 0 -32 0 -3 -9 -25 -33 -37 -31 -13 -28
0 0 0 -3 0 0 0 0 0 0 0 0 0 0 0 0 0 0 0 0 0 0 0 0 0 0 0 0 0 -1 -14 -4 -7 -2 -9 -3 -2 0 -19 -3 -21 -33 -39 -25 -12
0 0 0 0 0 0 0 0 0 0 0 0 0 0 0 0 0 0 0 0 0 0 0 0 0 0 0 0 0 -16 -4 -6 -3 0 0 -9 -14 -1 -8 -16 -28 -51 -42 -39 -34
-1 0 0 0 0 0 0 0 0 0 0 0 0 0 0 0 0 0 0 0 0 0 0 0 0 0 0 0 -12 -15 0 0 -1 -1 -2 -11 -21 -5 -36 -44 -50 -54 -56 -50 -44
0 0 0 0 0 0 0 0 0 0 0 0 0 0 0 0 0 0 0 0 0 0 0 0 0 0 0 0 0 -6 0 0 -4 -2 -1 -6 -1 -1 -55 -68 -83 -103 -59 -47 -52
0 0 0 0 0 0 0 0 0 0 0 0 0 0 0 0 0 0 0 0 0 0 0 0 0 0 0 0 0 0 -2 0 0 0 -1 -1 -1 -17 -43 -38 -67 -70 -71 -47 -54
0 0 0 0 0 0 0 0 0 0 0 0 0 0 0 0 0 0 0 0 0 0 0 0 0 0 0 0 0 0 0 0 0 0 0 0 -3 -1 -4 -20 -40 -38 -40 -41 -32
0 0 0 0 0 0 0 0 0 0 0 0 0 0 0 0 0 0 0 0 0 0 0 0 0 0 0 0 0 0 0 0 0 0 0 0 0 -8 -3 -10 -27 -32 -25 -33 -24
0 0 0 0 0 0 0 0 0 0 0 0 0 0 0 0 0 -1 0 -13 0 0 0 0 0 0 0 0 0 0 0 0 0 -1 0 -3 -1 -21 -5 -6 -15 -23 -45 -26 -32
0 0 0 0 0 0 0 0 0 0 0 0 0 0 0 0 0 0 -42 0 0 0 0 0 0 0 -2 0 0 0 0 0 0 0 -2 -2 0 -7 -14 -25 -25 -11 -31 -42 -46
0 0 0 0 0 0 0 0 0 0 0 0 0 0 0 0 0 0 0 0 0 0 0 0 -1 -4 -2 -2 -4 -3 -1 0 0 -1 0 0 -1 -1 -1 -12 -15 -38 -28 -14 -30
0 0 0 0 0 0 0 0 0 0 0 0 0 0 0 0 0 0 0 0 0 0 0 0 -12 -11 -6 -7 -1 -19 -5 -1 0 -4 0 -1 -1 0 0 0 -5 -16 -34 -17 -20
0 0 0 0 0 0 0 0 0 0 0 0 0 0 0 0 -196 -148 -4 0 0 0 0 -59 -51 -18 -9 -9 -2 0 -1 -4 0 0 0 0 0 -1 -10 -19 -22 -31 -28 -27 -17
0 0 0 0 0 0 0 0 0 0 0 0 0 0 0 0 0 0 0 0 0 -58 -69 -22 -34 -4 -2 -1 -1 0 -9 -4 0 -1 -1 0 -5 -1 -5 -12 -7 -9 -14 -20 -15
Wind_Speed
10 10 10 10 10 10 10 10 10 10 10 10 10 10 10 11 14 7 10 2 4 13 8 10 8 6 5 3 3 2 5 5 7 5 4 6 5 7 1 7 3 4 5 14 19
10 10 10 10 10 10 11 11 11 10 10 10 9 10 9 9 9 12 4 7 8 14 13 13 9 7 4 1 2 5 5 8 6 4 2 5 2 4 4 6 6 6 8 17 20
11 11 11 11 11 11 11 11 11 11 10 10 9 9 9 11 7 4 9 10 13 15 7 5 4 7 6 1 1 2 5 6 2 5 5 5 7 5 8 9 4 7 13 18 17
13 12 12 12 12 12 11 11 11 11 11 9 9 8 8 7 5 6 4 9 13 10 8 8 8 9 6 1 2 5 2 5 5 1 3 5 4 2 5 8 4 10 16 18 17
13 13 13 13 13 13 12 12 12 11 10 8 8 7 7 8 3 5 6 11 13 11 11 9 9 7 6 1 2 5 2 2 1 3 3 3 6 3 7 6 9 15 15 16 15
14 13 14 14 14 14 13 13 13 11 8 7 6 6 7 9 3 2 9 17 14 14 9 7 4 3 1 1 5 2 4 0 2 3 4 7 6 4 6 9 12 14 15 14 14
15 14 14 14 14 15 15 15 13 11 7 7 5 6 7 4 2 6 11 14 11 12 8 4 1 6 1 3 2 1 8 2 6 5 3 7 9 10 2 12 13 13 13 13 12
16 15 15 15 14 15 16 16 15 8 6 6 6 7 5 3 3 8 8 9 9 5 1 2 4 1 5 4 3 5 5 6 6 6 4 8 3 8 6 12 14 13 12 12 13
16 15 16 16 15 15 16 16 8 4 4 6 8 7 5 5 8 10 6 8 11 6 4 4 6 3 6 8 8 5 8 7 2 7 2 10 2 9 11 12 12 12 12 12 12
15 16 14 13 16 14 15 12 4 8 7 6 5 7 6 10 9 9 5 9 9 11 8 9 8 10 8 9 6 9 11 8 5 4 8 9 10 8 14 14 14 13 12 12 13
16 15 14 14 13 13 11 6 7 8 8 7 2 2 8 8 9 10 10 8 10 13 13 12 11 13 8 1 6 10 12 10 3 1 6 9 11 9 12 14 15 15 14 14 12
18 16 15 14 14 10 8 7 5 7 5 10 7 5 4 1 8 11 11 11 11 14 11 8 15 11 0 6 10 10 11 3 6 0 6 9 14 12 15 17 17 17 15 14 12
16 15 14 14 12 5 7 6 1 5 7 7 7 7 7 10 7 15 17 10 11 13 14 16 5 3 5 8 9 11 5 7 5 1 7 9 14 8 14 17 18 18 16 16 15
18 15 13 14 5 3 5 5 4 6 7 10 9 8 9 9 9 9 16 11 7 12 9 10 10 7 8 9 8 11 4 4 2 7 5 2 5 3 5 8 16 19 19 18 17
21 16 10 7 7 6 6 2 5 6 7 8 8 7 12 14 11 11 13 11 11 11 7 7 9 13 14 9 5 3 4 3 4 7 7 8 7 8 4 5 8 13 19 19 17
23 18 8 6 5 5 4 5 6 9 3 7 7 12 15 14 7 10 12 11 4 7 10 14 4 5 7 1 6 1 7 7 6 7 6 3 5 4 4 6 2 3 12 18 17
21 14 6 3 3 1 4 6 8 8 4 8 8 14 18 12 9 11 15 16 10 11 13 14 16 13 10 12 6 9 12 6 4 6 4 6 3 7 5 4 6 3 11 16 15
20 6 5 3 1 4 6 8 6 4 0 3 2 10 13 11 12 10 12 13 16 10 9 12 15 16 14 17 11 14 14 9 4 5 6 7 2 4 5 6 2 2 9 14 15
17 4 3 3 3 5 8 8 5 2 2 3 6 10 14 11 6 12 14 13 13 16 10 8 10 3 4 10 10 8 10 9 11 9 9 3 3 7 4 4 3 7 11 13 15
3 3 5 4 4 6 8 3 0 2 6 3 6 4 13 16 13 11 12 6 15 15 17 1 6 6 5 6 7 14 6 9 10 6 8 8 4 9 4 5 5 8 11 13 14
5 4 5 2 4 6 8 1 2 0 4 4 2 3 4 5 14 12 5 5 7 6 16 15 7 7 7 11 5 8 11 10 9 6 7 5 5 6 3 6 8 7 10 13 14
5 3 3 3 6 2 5 1 1 3 2 4 5 6 8 2 7 12 11 10 1 8 8 18 9 11 13 3 3 12 8 11 9 12 7 10 7 4 3 5 8 10 8 11 12
3 3 3 5 4 5 3 4 4 4 2 3 4 2 2 3 4 6 4 4 3 5 4 8 10 11 13 9 9 11 12 13 14 12 5 8 3 8 5 7 8 9 11 8 10
4 3 4 1 1 6 3 3 4 2 2 2 5 7 6 9 7 3 4 2 4 4 4 6 13 12 13 8 7 8 11 13 14 11 9 9 9 9 8 8 10 11 11 13 12
4 5 4 1 4 2 4 3 4 4 2 2 5 2 4 7 8 10 6 5 2 1 2 8 13 15 15 17 14 13 15 12 16 14 15 8 10 8 8 7 5 8 13 13 13
5 5 1 2 3 6 4 3 6 3 4 3 6 5 5 8 4 4 6 5 3 2 6 6 10 9 17 14 17 15 17 19 16 17 9 13 10 5 5 4 6 9 10 12 13
4 0 5 4 2 5 1 3 1 4 3 4 5 9 9 4 9 12 12 13 12 9 8 6 9 10 18 19 13 17 15 18 16 13 14 14 10 6 7 6 8 10 11 13 13
Wind_Direction
6 3 1 358 351 346 342 336 327 316 312 312 320 322 324 323 297 226 243 90 144 148 214 159 197 180 211 264 280 284 264 341 358 334 69 148 169 180 18 143 98 83 68 120 144
360 358 354 351 346 340 337 334 329 323 314 315 315 320 320 324 268 247 133 133 138 165 174 182 179 192 214 236 263 285 304 4 349 342 359 161 164 146 155 143 139 139 115 134 152
0 355 351 347 341 337 333 330 328 324 316 306 312 310 313 300 259 198 112 156 164 191 203 221 198 222 261 222 270 44 331 333 1 313 285 188 132 216 199 187 143 163 152 155 163
357 352 347 343 339 336 332 329 327 321 313 306 304 304 306 252 228 80 140 157 171 207 199 195 205 227 265 251 145 280 326 318 354 301 192 201 65 343 226 64 60 117 157 159 168
354 348 344 340 335 332 330 328 324 319 308 299 292 299 264 217 253 102 154 160 178 198 201 210 231 254 273 152 228 307 0 334 358 158 213 190 195 167 188 114 114 127 153 160 171
345 341 338 336 333 331 329 325 320 313 299 280 278 283 248 234 66 36 172 172 199 201 204 226 273 309 332 23 319 16 322 242 198 185 219 229 195 261 178 141 137 147 155 163 172
349 344 341 336 333 330 328 325 316 303 279 255 246 255 250 27 0 125 152 181 185 205 205 203 268 260 269 173 79 294 294 243 196 208 208 215 241 225 350 169 157 162 166 167 175
347 343 338 334 331 328 327 324 314 277 232 230 225 240 267 113 107 166 159 164 181 177 334 191 211 169 289 137 182 280 250 316 121 189 169 226 138 163 170 207 171 176 175 181 182
344 340 336 331 329 326 324 319 318 152 189 189 222 249 143 138 202 166 191 172 167 180 140 155 228 263 197 251 254 181 324 340 328 204 191 221 230 158 182 192 188 184 189 194 190
339 336 330 324 324 323 315 302 162 178 190 221 266 239 188 183 143 156 161 155 174 167 167 203 214 229 218 244 306 335 322 329 338 153 229 241 244 167 190 196 203 205 207 201 202
338 333 328 327 322 321 295 199 205 182 211 274 146 324 122 106 151 187 172 177 177 191 204 204 228 224 263 317 308 307 310 308 12 45 251 253 263 242 198 213 211 214 216 211 209
335 333 330 325 324 317 239 243 10 357 257 214 239 262 242 286 162 161 191 199 189 202 205 192 232 251 354 281 278 283 298 354 120 106 234 275 270 251 225 214 220 212 219 220 191
329 326 325 322 328 225 242 247 296 325 256 154 189 223 192 206 207 164 195 200 206 211 206 241 82 325 232 262 275 264 286 1 344 271 231 280 255 238 225 222 216 224 220 220 215
325 322 318 315 274 122 223 170 234 296 258 139 186 182 178 214 206 154 209 195 201 222 211 247 239 220 250 266 282 284 29 286 273 276 352 315 322 154 183 211 223 217 221 219 205
326 319 303 266 335 227 71 163 270 221 239 137 140 117 159 201 117 177 190 209 234 201 230 211 215 229 243 268 306 16 304 293 310 278 313 141 260 108 195 214 197 212 215 214 207
325 322 291 183 218 284 255 286 213 227 184 140 131 178 175 204 170 134 187 228 289 236 221 264 136 257 243 333 255 263 236 229 220 248 172 87 329 275 44 355 314 204 204 194 200
331 326 200 183 64 178 263 206 213 258 142 150 171 177 194 179 167 185 190 198 207 205 211 209 224 226 237 245 201 227 248 246 243 215 91 120 302 325 341 346 328 238 178 179 191
328 288 181 290 237 283 214 219 245 37 295 101 208 185 202 185 200 186 196 208 217 250 277 206 200 208 197 232 245 208 268 295 281 288 0 137 244 11 316 305 24 136 165 169 177
313 178 183 73 212 250 230 221 8 18 9 338 163 199 201 194 252 207 222 226 218 211 251 205 242 259 223 231 245 186 233 293 295 228 253 72 25 127 96 124 110 116 155 164 170
274 212 70 67 177 247 237 288 316 331 334 293 265 243 202 194 202 202 198 234 231 213 229 157 266 200 102 198 215 259 335 218 213 269 261 131 263 58 139 141 125 149 156 164 172
232 200 91 190 248 221 231 135 260 79 305 308 307 249 271 206 218 201 234 199 218 198 214 234 248 149 172 206 215 172 223 235 301 308 302 224 128 41 78 159 156 151 161 163 171
290 186 71 233 214 250 235 306 74 270 185 267 279 277 279 287 241 236 242 237 233 161 202 219 244 248 246 220 288 266 263 219 233 184 240 315 318 90 114 170 170 161 169 156 169
1 30 115 268 257 194 161 212 274 258 235 275 264 247 299 254 252 241 283 18 168 222 203 157 231 248 238 189 201 233 234 241 233 252 273 274 263 140 186 181 208 190 160 169 163
285 214 136 126 343 304 263 214 233 152 233 289 296 272 257 238 197 268 245 134 335 266 37 250 262 244 274 284 18 215 227 227 240 239 251 209 275 163 219 220 205 203 182 178 180
348 58 11 41 128 307 275 322 253 229 224 267 193 350 305 263 239 228 236 273 175 14 201 242 251 258 266 281 285 280 284 240 236 244 269 286 214 258 302 290 217 192 196 194 180
351 334 325 322 279 262 156 190 279 295 272 187 283 319 293 273 327 331 329 243 292 290 266 237 266 281 265 264 266 265 258 260 234 254 253 254 265 275 291 238 206 178 183 190 193
24 24 286 124 252 256 1 335 324 319 210 283 335 311 266 8 319 297 287 281 275 287 282 261 276 256 259 270 284 264 254 261 258 235 233 231 236 196 208 211 206 197 196 200 204